This is the latest recevied weather packets stored in our database for station/object KL4TQ. If no packets are shown the sender has not sent any weather packets the latest 10 day(s).
| Time | Temp. | Humidity | Pressure | Rain* | Wind** | Luminosity | Snow |
|---|---|---|---|---|---|---|---|
| 1778025669 | 6.67° C | 81% | 857 hPa | 0 mm | - | 354 W/m² | - |
| 1778025371 | 6.67° C | 81% | 857 hPa | 0 mm | - | 390 W/m² | - |
| 1778025068 | 6.67° C | 79% | 857 hPa | 0 mm | - | 313 W/m² | - |
| 1778024768 | 7.22° C | 78% | 857 hPa | 0 mm | - | 702 W/m² | - |
| 1778024469 | 7.22° C | 77% | 857 hPa | 0 mm | - | 400 W/m² | - |
| 1778024171 | 7.78° C | 76% | 858 hPa | 0 mm | - | 862 W/m² | - |
| 1778023869 | 7.22° C | 76% | 857 hPa | 0 mm | - | 734 W/m² | - |
| 1778023568 | 7.22° C | 77% | 857 hPa | 0 mm | - | 721 W/m² | - |
| 1778023269 | 7.22° C | 77% | 857 hPa | 0 mm | - | 618 W/m² | - |
| 1778022968 | 6.67° C | 79% | 857 hPa | 0 mm | - | 593 W/m² | - |
| 1778022669 | 6.11° C | 81% | 857 hPa | 0 mm | - | 624 W/m² | - |
| 1778022369 | 6.11° C | 82% | 857 hPa | 0 mm | - | 355 W/m² | - |
| 1778022069 | 6.67° C | 81% | 857 hPa | 0 mm | - | 383 W/m² | - |
| 1778021768 | 6.67° C | 80% | 857 hPa | 0 mm | - | 374 W/m² | - |
| 1778021468 | 7.22° C | 79% | 857 hPa | 0 mm | - | 366 W/m² | - |
| 1778021169 | 7.22° C | 78% | 857 hPa | 0 mm | - | 406 W/m² | - |
| 1778020868 | 7.78° C | 77% | 857 hPa | 0 mm | - | 481 W/m² | - |
| 1778020568 | 7.78° C | 76% | 857 hPa | 0 mm | - | 472 W/m² | - |
| 1778020268 | 7.78° C | 76% | 858 hPa | 0 mm | - | 711 W/m² | - |
| 1778019969 | 8.33° C | 74% | 858 hPa | 0 mm | - | 768 W/m² | - |
| 1778019669 | 7.78° C | 76% | 857 hPa | 0 mm | - | 639 W/m² | - |
| 1778019369 | 7.78° C | 75% | 857 hPa | 0 mm | - | 535 W/m² | - |
| 1778019069 | 7.78° C | 76% | 857 hPa | 0 mm | - | 569 W/m² | - |
| 1778018769 | 7.78° C | 77% | 857 hPa | 0 mm | - | 532 W/m² | - |
| 1778018469 | 7.78° C | 75% | 857 hPa | 0 mm | - | 525 W/m² | - |
* Rain latest hour (hover to see other rain measurements)
** Current wind speed in m/s (hover to see current wind gust speed)